User: anonymous
Location: Hickory_CSC
(35.7330°N, 81.3330°W)
Time: 05:26:50
(UTC-04:00)
Language:

Cosmos 1356 Rocket - Orbit

View from above orbital plane
View from above orbital plane
View from above satellite
View from above satellite

Ground track
Ground track

The orbit data is extracted from the following two-line orbital elements,

1 13154U 82039B   14211.45034504  .00000979  00000-0  83416-4 0  3524
2 13154 081.1867 337.6519 0043074 114.9557 245.6145 14.96142429746175
Epoch (UTC): 30 July 2014 10:48:29
Eccentricity: 0.0043074
inclination: 81.1867°
perigee height: 549 km
apogee height: 609 km
right ascension of ascending node: 337.6519°
argument of perigee: 114.9557°
revolutions per day: 14.96142429
mean anomaly at epoch: 245.6145°
orbit number at epoch: 74617

The dashed part of the orbit path shows where the satellite is in the earth's shadow,  

DLR